Wind_Speed
10 11 12 12 13 14 14 14 14 15 15 15 15 16 16 17 18 19 20 21 22 22 23 23 24 24 25 25 25 25 26 26 26 27 26 25 25 26 25 26 26 26 27
11 12 13 14 15 15 15 16 16 17 17 18 18 19 19 20 21 22 23 24 25 25 25 26 26 27 27 28 28 28 29 29 29 30 30 29 28 28 28 29 29 28 28
12 13 14 15 15 16 17 18 19 20 20 21 21 22 22 23 24 25 26 26 27 27 28 28 28 29 30 30 30 31 32 32 32 32 33 33 32 31 31 31 32 31 31
14 15 16 16 17 18 19 20 21 22 23 23 24 24 25 26 27 28 29 29 30 30 30 30 31 32 32 33 33 34 35 35 35 35 35 35 35 35 34 34 34 34 34
17 18 19 19 20 21 22 22 23 24 25 25 26 27 28 28 29 30 31 32 32 32 33 33 33 34 35 36 37 37 38 38 38 38 38 38 38 38 38 37 37 36 36
20 21 21 22 23 23 24 25 25 26 26 27 29 30 30 31 32 33 34 34 35 35 35 36 36 36 37 38 39 40 41 41 40 40 40 40 40 41 41 40 40 39 38
24 24 25 25 26 25 26 27 28 29 30 30 31 32 32 33 35 35 36 37 37 38 37 38 38 39 40 40 41 42 43 44 45 44 44 42 43 44 45 44 43 42 41
27 27 28 28 29 30 30 31 32 33 33 33 34 34 34 35 36 36 38 39 40 40 40 41 42 42 43 44 45 45 45 45 46 48 48 46 46 47 48 48 47 46 45
30 32 32 32 33 34 34 35 35 35 36 36 36 37 38 38 39 39 40 41 42 43 44 44 45 46 46 47 48 49 49 49 49 50 50 50 50 50 50 51 50 49 48
34 35 35 36 36 36 36 37 38 38 39 39 40 41 41 42 42 42 42 43 44 45 46 46 48 49 50 51 51 52 52 52 54 54 54 53 53 52 53 53 53 53 52
36 36 37 37 37 37 38 38 38 39 40 41 42 42 43 43 43 44 45 46 47 48 49 50 51 52 53 54 55 56 56 57 57 58 58 58 58 57 56 56 56 56 56
37 37 38 39 39 39 39 39 39 41 41 42 42 43 44 45 46 47 48 49 50 51 53 54 55 57 58 59 60 61 61 62 63 63 63 62 62 62 61 60 59 59 58
37 38 38 39 40 39 39 39 40 40 41 43 44 45 46 47 48 49 51 52 54 56 57 59 60 62 63 64 65 66 67 67 67 67 67 66 66 66 65 65 63 61 60
37 37 36 37 37 37 38 38 40 42 43 45 46 47 48 50 52 54 56 58 59 61 62 64 65 66 68 69 70 70 70 71 71 71 70 69 69 68 68 67 66 64 63
36 36 37 37 38 38 39 40 42 43 44 46 48 50 52 54 56 58 60 62 64 66 67 68 70 71 71 72 72 72 72 71 71 70 69 69 68 67 66 65 64 63 63
37 37 38 39 40 41 42 43 44 46 47 49 51 53 56 58 60 62 64 66 68 70 72 72 73 73 72 71 70 69 68 67 66 66 66 65 64 63 62 61 60 60 60
39 39 40 41 42 43 45 46 48 49 51 53 55 57 59 61 63 65 67 68 69 70 70 69 68 67 65 64 63 61 61 60 60 60 59 58 57 57 56 55 55 56 55
39 41 42 42 44 46 47 49 51 53 55 58 60 62 63 64 64 65 66 66 65 64 63 62 60 58 57 56 55 54 53 52 52 51 51 51 51 50 50 49 50 50 51
42 43 44 45 46 48 50 52 55 57 58 60 61 62 62 63 63 62 61 60 58 57 55 53 52 51 49 48 46 45 44 44 44 44 43 43 43 44 43 43 44 44 44
44 45 46 47 49 50 52 54 55 56 57 58 58 58 58 57 57 56 54 53 51 48 47 46 44 43 41 40 39 38 38 37 37 37 37 36 36 36 35 36 37 38 38
46 47 49 50 51 52 53 54 54 54 54 54 54 53 52 51 50 49 47 46 44 42 41 39 38 37 36 35 35 34 33 32 31 30 29 29 29 30 29 29 30 30 32
47 48 49 50 51 51 51 51 50 50 50 49 48 47 46 45 44 43 42 40 38 37 36 34 33 32 31 30 29 28 26 26 25 24 23 22 22 22 23 23 24 24 26
48 48 49 49 48 48 47 46 46 46 45 43 42 41 40 40 39 38 36 35 34 33 31 29 28 27 26 25 24 22 21 20 19 18 18 17 17 17 18 18 18 19 21
47 47 46 46 45 43 43 42 42 41 39 38 38 37 36 36 35 32 31 30 29 28 25 24 23 23 22 21 20 19 17 16 15 14 14 13 12 13 14 15 16 17 19
45 44 43 42 40 40 39 38 37 36 35 35 34 33 33 31 29 28 27 26 26 24 22 21 21 20 19 18 17 16 15 14 14 13 12 12 12 12 13 13 14 16 17
41 40 40 38 37 36 35 34 33 32 32 31 30 30 28 27 26 24 23 23 22 20 19 18 18 18 17 16 15 14 13 13 14 13 13 13 13 14 14 14 15 15 16
Wind_Direction
224 226 229 234 236 238 240 243 247 251 255 259 264 268 272 276 279 282 285 286 287 289 290 291 291 291 291 291 291 291 291 291 292 293 293 291 290 290 290 288 286 285 285
239 239 241 242 244 246 249 252 254 257 261 264 268 272 276 279 281 282 284 286 287 288 289 290 290 290 289 289 289 289 289 289 289 289 290 289 288 287 288 288 286 283 282
249 249 249 250 252 254 256 257 259 261 264 267 270 273 275 278 280 281 283 284 285 286 287 288 288 288 288 288 287 288 288 288 287 287 287 287 287 286 286 285 285 283 281
260 260 259 260 260 260 261 261 262 264 266 269 271 274 276 278 280 281 282 283 284 284 285 286 287 287 286 286 286 286 287 287 286 285 285 285 285 285 285 284 284 283 282
268 266 264 264 264 265 265 266 267 268 270 272 274 276 278 279 280 281 282 283 284 285 285 285 285 285 285 285 285 285 285 286 286 285 284 283 283 283 283 283 282 281 281
271 271 270 267 266 268 268 268 270 272 273 275 277 279 279 280 280 281 282 283 284 284 284 284 284 285 286 286 285 285 285 285 284 284 283 282 282 282 282 282 282 281 280
277 277 276 274 271 270 270 272 273 275 276 277 278 279 280 281 281 282 283 284 284 284 284 284 285 285 285 284 283 283 284 285 284 284 283 283 282 281 281 281 281 281 281
278 280 280 280 279 276 275 276 276 276 277 278 280 280 280 281 282 285 285 285 285 286 285 285 285 285 285 284 284 283 283 283 283 283 283 282 282 281 281 281 281 280 279
278 278 278 278 278 277 278 278 278 278 279 280 281 281 282 282 283 284 285 286 287 287 286 285 286 285 285 284 284 284 284 284 282 281 281 281 280 281 281 281 280 279 279
279 278 278 279 279 276 277 277 279 281 281 282 281 281 282 283 285 286 287 287 287 287 287 287 286 286 286 285 285 284 284 283 282 281 281 280 280 279 279 279 279 279 278
281 279 279 278 278 278 279 281 283 284 284 284 285 285 285 287 288 288 289 288 289 289 288 288 287 287 287 287 286 285 284 283 281 281 281 280 280 279 278 277 277 277 277
282 280 281 280 279 278 279 281 283 285 286 288 288 289 289 289 289 289 289 289 289 289 289 289 289 288 288 287 286 285 284 283 282 281 280 279 279 278 277 276 275 274 275
283 283 282 281 278 278 281 283 286 289 289 289 289 289 289 289 290 290 290 290 290 289 289 289 289 288 287 287 286 285 284 283 282 281 280 279 278 277 276 275 274 273 272
284 284 284 284 283 283 285 286 288 289 290 289 288 289 290 290 291 291 291 291 291 290 290 289 289 288 287 286 285 284 284 283 282 280 279 278 277 276 275 274 273 272 271
287 285 285 286 287 286 286 287 288 289 290 291 291 292 292 292 292 292 292 291 291 291 290 289 289 288 287 286 285 284 283 282 281 280 279 278 277 275 273 272 270 268 267
286 286 286 287 287 288 288 289 289 290 291 291 292 292 292 292 292 292 292 292 292 292 292 291 290 289 288 287 286 284 283 282 281 280 279 277 275 273 272 270 267 266 264
287 287 288 290 291 291 291 292 292 292 292 292 293 293 293 293 293 293 293 293 293 293 293 292 291 290 289 288 286 285 284 283 281 279 278 276 274 272 269 267 265 263 262
290 290 291 291 292 292 292 293 293 294 294 295 295 295 295 295 295 295 295 294 294 294 293 293 292 291 290 289 287 286 285 283 282 280 277 275 273 271 269 266 263 262 259
292 292 292 293 294 294 295 295 296 296 297 298 298 298 298 298 298 298 297 297 296 295 294 294 293 293 292 291 289 288 287 286 284 282 280 277 273 270 269 266 263 261 259
296 296 296 296 296 297 297 298 298 299 299 300 299 299 299 299 299 299 299 299 299 298 297 296 296 295 294 293 292 291 289 288 287 285 282 279 274 271 270 267 264 261 257
299 299 300 300 299 299 299 300 300 301 301 301 301 301 301 301 301 301 301 300 300 299 299 298 297 297 296 295 295 294 294 292 289 287 284 280 276 272 270 269 266 260 256
302 302 302 302 302 302 301 301 302 302 301 301 302 302 303 303 303 303 302 301 301 301 301 299 298 298 297 297 297 297 298 296 294 293 289 285 280 276 271 269 267 263 259
303 303 302 302 302 302 301 302 302 302 303 303 304 305 305 305 305 305 304 303 302 302 301 301 301 300 299 300 301 300 300 300 299 298 296 292 286 279 273 270 266 263 261
303 303 303 303 302 302 302 303 304 304 305 305 306 307 307 308 308 307 306 306 306 305 303 303 304 304 302 301 301 301 300 299 299 300 298 296 292 285 278 273 270 267 265
303 303 303 303 303 303 304 304 305 305 306 307 307 308 310 311 311 311 310 310 311 309 306 307 308 307 305 304 304 302 299 297 297 297 297 297 293 288 283 278 273 268 265
304 304 304 303 304 304 304 305 306 307 308 308 309 311 312 314 314 315 315 315 315 313 311 312 314 313 311 307 306 305 301 298 297 294 294 292 289 288 286 282 278 273 269
Height
5852 5853 5855 5857 5858 5859 5860 5861 5862 5864 5864 5865 5866 5866 5866 5866 5866 5866 5865 5865 5865 5864 5863 5862 5861 5861 5860 5859 5858 5857 5856 5855 5854 5852 5852 5851 5850 5849 5848 5847 5846 5846 5845
5850 5851 5852 5854 5855 5856 5857 5858 5859 5860 5860 5861 5861 5862 5862 5861 5861 5861 5860 5859 5859 5858 5857 5856 5855 5854 5853 5852 5851 5850 5849 5848 5847 5846 5845 5844 5844 5842 5841 5840 5839 5839 5838
5847 5848 5849 5850 5851 5852 5853 5853 5854 5855 5855 5855 5856 5856 5856 5855 5855 5854 5853 5853 5852 5852 5851 5850 5849 5847 5846 5845 5844 5842 5841 5840 5839 5838 5837 5836 5835 5834 5834 5833 5831 5831 5830
5844 5844 5845 5846 5847 5847 5848 5848 5849 5849 5849 5849 5849 5849 5849 5849 5848 5847 5846 5846 5845 5844 5843 5842 5841 5840 5839 5837 5836 5834 5833 5832 5830 5830 5829 5827 5826 5825 5825 5824 5823 5822 5821
5840 5840 5840 5841 5841 5842 5842 5842 5842 5842 5842 5842 5842 5842 5842 5841 5840 5839 5838 5838 5837 5836 5835 5834 5832 5831 5830 5828 5827 5825 5824 5822 5821 5820 5819 5818 5817 5815 5814 5814 5813 5812 5812
5835 5835 5835 5835 5835 5835 5835 5835 5835 5835 5835 5835 5835 5834 5833 5832 5831 5830 5829 5828 5828 5827 5826 5825 5823 5822 5820 5818 5816 5815 5813 5812 5811 5810 5808 5808 5806 5804 5803 5802 5801 5801 5801
5830 5829 5829 5829 5828 5828 5828 5828 5828 5827 5827 5826 5826 5825 5824 5823 5821 5820 5819 5818 5817 5817 5816 5814 5813 5811 5809 5808 5806 5804 5802 5800 5799 5798 5797 5796 5794 5792 5790 5790 5789 5788 5788
5824 5823 5823 5823 5822 5821 5821 5821 5820 5819 5818 5817 5816 5815 5814 5813 5811 5810 5809 5807 5806 5805 5804 5803 5801 5800 5797 5795 5793 5792 5791 5789 5787 5784 5783 5782 5781 5779 5777 5776 5775 5775 5775
5816 5816 5815 5815 5813 5813 5813 5812 5811 5810 5809 5807 5806 5805 5803 5802 5800 5799 5797 5796 5794 5793 5792 5790 5788 5786 5784 5782 5780 5778 5776 5775 5773 5771 5769 5768 5766 5765 5763 5761 5761 5760 5761
5809 5807 5805 5805 5803 5803 5803 5802 5801 5800 5798 5797 5795 5793 5792 5790 5789 5787 5786 5783 5782 5780 5778 5776 5773 5771 5769 5767 5765 5763 5761 5759 5757 5755 5753 5752 5751 5750 5748 5746 5745 5744 5744
5800 5798 5797 5795 5794 5794 5792 5791 5790 5789 5787 5785 5783 5781 5779 5778 5776 5775 5772 5770 5768 5766 5764 5761 5758 5755 5753 5750 5748 5746 5744 5741 5739 5738 5736 5735 5733 5732 5732 5730 5728 5727 5726
5790 5789 5788 5786 5784 5784 5783 5781 5779 5778 5776 5774 5772 5770 5767 5765 5763 5761 5759 5756 5753 5750 5748 5745 5742 5739 5736 5733 5730 5727 5724 5721 5720 5718 5717 5716 5714 5713 5712 5711 5710 5709 5708
5781 5780 5778 5776 5774 5773 5771 5770 5768 5766 5764 5762 5760 5757 5754 5751 5749 5747 5744 5741 5737 5734 5731 5728 5724 5721 5717 5714 5711 5707 5703 5700 5698 5696 5695 5694 5693 5691 5690 5689 5689 5689 5689
5772 5770 5768 5766 5764 5763 5761 5759 5757 5755 5752 5749 5747 5744 5741 5737 5734 5731 5727 5723 5720 5716 5713 5709 5705 5701 5696 5692 5689 5685 5681 5677 5674 5672 5670 5670 5668 5667 5666 5666 5666 5666 5667
5762 5760 5758 5756 5754 5752 5750 5748 5746 5743 5740 5737 5733 5730 5726 5722 5718 5714 5709 5705 5700 5696 5691 5688 5683 5678 5674 5669 5664 5660 5656 5653 5649 5647 5645 5644 5643 5642 5642 5642 5642 5642 5644
5752 5750 5748 5745 5743 5741 5738 5736 5732 5730 5726 5723 5719 5715 5710 5706 5701 5696 5690 5685 5679 5673 5668 5664 5659 5653 5648 5644 5639 5635 5631 5628 5624 5621 5620 5618 5618 5618 5618 5618 5618 5619 5621
5742 5739 5736 5734 5731 5728 5725 5722 5719 5715 5711 5707 5703 5699 5694 5688 5683 5677 5671 5665 5658 5651 5645 5640 5634 5629 5624 5620 5615 5612 5609 5605 5602 5599 5596 5595 5595 5594 5595 5595 5596 5597 5600
5730 5727 5725 5721 5718 5715 5711 5707 5703 5699 5695 5689 5685 5679 5674 5668 5662 5656 5650 5643 5637 5630 5624 5618 5613 5608 5604 5599 5595 5592 5589 5585 5582 5578 5576 5575 5574 5574 5574 5575 5577 5578 5581
5718 5715 5712 5708 5705 5701 5697 5692 5687 5682 5677 5671 5666 5660 5654 5647 5641 5635 5628 5622 5616 5611 5605 5600 5595 5590 5586 5582 5578 5574 5571 5568 5565 5562 5560 5558 5557 5556 5557 5558 5560 5562 5564
5705 5702 5698 5694 5690 5686 5681 5676 5671 5666 5660 5654 5647 5641 5635 5629 5623 5617 5610 5604 5598 5593 5588 5584 5579 5575 5571 5567 5564 5561 5557 5555 5551 5548 5546 5544 5543 5543 5544 5545 5546 5548 5550
5692 5688 5684 5680 5675 5671 5665 5660 5655 5649 5643 5637 5631 5625 5619 5613 5607 5601 5595 5589 5584 5579 5575 5571 5567 5563 5559 5556 5552 5549 5546 5543 5540 5537 5535 5534 5533 5533 5533 5534 5535 5536 5538
5679 5674 5670 5665 5660 5655 5650 5644 5639 5633 5628 5622 5617 5611 5605 5599 5593 5588 5582 5577 5572 5568 5563 5559 5556 5552 5549 5546 5543 5540 5537 5534 5532 5530 5528 5526 5525 5525 5525 5526 5527 5528 5529
5666 5661 5656 5651 5645 5640 5635 5630 5625 5619 5614 5609 5603 5598 5593 5587 5581 5576 5571 5566 5562 5557 5553 5550 5546 5543 5540 5537 5535 5532 5530 5528 5526 5524 5522 5521 5520 5520 5520 5520 5521 5522 5524
5652 5647 5642 5637 5632 5627 5622 5617 5612 5607 5602 5597 5593 5588 5582 5577 5571 5566 5562 5558 5553 5549 5545 5542 5539 5536 5533 5531 5529 5527 5525 5523 5522 5520 5519 5518 5517 5516 5516 5517 5517 5518 5519
5638 5634 5629 5624 5619 5615 5611 5606 5601 5597 5592 5588 5583 5578 5574 5569 5564 5559 5555 5551 5547 5543 5539 5536 5533 5531 5528 5526 5524 5522 5521 5520 5518 5517 5516 5515 5515 5514 5514 5513 5514 5514 5514
5626 5622 5617 5613 5609 5605 5600 5596 5592 5588 5583 5579 5575 5571 5566 5562 5557 5553 5549 5545 5541 5538 5535 5532 5529 5527 5524 5522 5521 5519 5518 5517 5515 5514 5513 5512 5512 5511 5511 5510 5510 5510 5510